Weather Roundup
Issued by NWS Chicago, IL

Home | Current Version | Previous Version | Text Only | Print | Product List | Glossary Off
Versions: 1 2 3 4 5 6 7 8 9 10 11 12 13 14 15 16 17 18 19 20 21 22 23 24 25 26 27 28 29 30 31 32 33 34 35 36 37 38 39 40 41 42 43 44 45 46 47 48 49 50

000
NZUS59 KLOT 062302
HRRLOT

CHICAGO AREA WEATHER ROUNDUP
NATIONAL WEATHER SERVICE CHICAGO/ROMEOVILLE IL
600 PM CDT WED MAY 06 2015

NOTE: "FAIR" INDICATES FEW OR NO CLOUDS BELOW 12,000 FEET WITH NO
SIGNIFICANT WEATHER AND/OR OBSTRUCTIONS TO VISIBILITY.

* THESE STATIONS ARE NOT UNDER NWS QUALITY CONTROL. THEY ALSO MAY NOT
  REPORT WEATHER SUCH AS PRECIPITATION OR FOG.

ILZ005-006-012>014-019>023-070000-
NORTHEAST ILLINOIS

CITY           SKY/WX    TMP DP  RH WIND       PRES   REMARKS
OHARE          PTSUNNY   68  55  63 E9        30.07F
MIDWAY         PTSUNNY   67  56  67 E10       30.07F
AURORA         MOSUNNY   81  52  36 S10       30.05S HX  80
WAUKEGAN       MOSUNNY   58  53  84 NE8       30.09F
DUPAGE AIRPORT MOSUNNY   75  60  59 E12       30.05F
WHEELING       SUNNY     61  53  75 E6        30.10F HAZE
NORTHERLY IS     N/A     53  49  86 N7          N/A
$$

WIZ051-052-058>065-066-070>072-070000-
SOUTHEAST WISCONSIN

CITY           SKY/WX    TMP DP  RH WIND       PRES   REMARKS
MILWAUKEE      PTSUNNY   59  52  77 E8        30.10F HAZE
KENOSHA*       MOSUNNY   60  54  80 E9        30.09F
RACINE*        MOSUNNY   56  50  80 NE8       30.11F
WAUKESHA       PTSUNNY   63  54  72 E9        30.10F
$$

INZ001>003-010>013-019-020-070000-
NORTHWEST INDIANA

CITY           SKY/WX    TMP DP  RH WIND       PRES   REMARKS
GARY*          MOSUNNY   61 N/A N/A NE7       30.09F HAZE
MICHIGAN CITY* NOT AVBL
RENSSELAER*    NOT AVBL
$$

LMZ740>746-070000-
SOUTHERN LAKE MICHIGAN

STATION/POSITION TIME  SKY/WX   TEMP WIND        PRES    VSBY
                                AIR  DIR/SP/G
                 (UTC)          (F)  (DEG/KT/KT) (MB)    (MI)
HARRISON CRIB    2200            46  340/  8/  8   N/A
BURNHAM HARBOR   2300            53   10/  5/  8   N/A
CALUMET HARBOR   2200            52  350/  5/  6   N/A
BURNS HARBOR     2200            58   70/ 11/ 13 1019.3F
MICHIGAN CITY    2200            58   40/ 13/ 14   N/A
$$

ABBREVIATIONS USED IN REMARKS
   TC - TEMPERATURE IN CELSIUS
  WCI - WIND CHILL INDEX
   HX - HEAT INDEX
  VSB - VISIBILITY
$$



USA.gov is the U.S. government's official web portal to all federal, state and local government web resources and services.